Location: Arrodets-la-Barthe
(43.0306°N, 0.2829°E)
Time: 01:15:19
(UTC+00:00)

Cosmos 2344 - Pass Details

Date: 04 June 2022
Orbit: 1228 x 3015 km, 63.3° (Epoch: 04 July)

Event Time Altitude Azimuth Distance (km) Brightness Sun altitude
Rises 21:09:17 0° 260° (W) 4,207 6.7 -13.9°
Reaches altitude 10° 21:12:30 10° 272° (W) 3,193 6.3 -14.3°
Maximum altitude 21:18:45 29° 331° (NNW) 2,147 5.6 -15.0°
Drops below altitude 10° 21:25:30 10° 29° (NNE) 3,470 6.2 -15.7°
Sets 21:29:13 0° 41° (NE) 4,641 6.7 -16.1°
